Weather observations for the past three days for
Caribou, Caribou Municipal Airport
Imperial (Metric)
Date Time (edt) Wind (mph) Vis. (mi.) Weather Sky Cond. Temperature (ºF) Relative Humidity Wind Chill (°F) Heat Index (°F) Pressure Precipitation (in)
Air Dwpt 6 hour altimeter (in) sea level (mb) 1 hr 3 hr 6 hr
Max. Min.
13 14:54 S 9 G 17 10.00 Partly Cloudy SCT050 73.9 55 52% 29.85 1011.1
13 13:54 SW 12 G 23 10.00 Partly Cloudy SCT050 73 54 73.9 63 51% 29.86 1011.5
13 12:54 SW 9 10.00 Mostly Cloudy BKN045 BKN050 71.1 54 55% 29.88 1012.2
13 11:54 SW 8 10.00 Mostly Cloudy BKN042 BKN049 71.1 55 57% 29.89 1012.3
13 10:54 SW 12 10.00 Partly Cloudy SCT032 70 55.9 61% 29.9 1012.6
13 09:54 SW 7 10.00 Mostly Cloudy BKN024 68 55.9 65% 29.9 1012.8
13 08:54 SW 6 10.00 Fair CLR 64.9 55 70% 29.91 1012.9
13 07:54 SW 7 10.00 Fair CLR 63 54 63 55 73% 29.91 1013.0
13 05:54 SW 3 10.00 A Few Clouds FEW110 57 54 90% 29.89 1012.4
13 04:54 SW 6 10.00 Fair CLR 55 53.1 93% 29.87 1011.6
13 03:54 S 3 10.00 Mostly Cloudy BKN110 57 54 90% 29.87 1011.6
13 02:54 Calm 10.00 Fair CLR 57 54 90% 29.87 1011.7
13 01:54 Calm 10.00 Fair CLR 57 55 66.9 55.9 93% 29.87 1011.7
13 00:54 SW 3 10.00 Mostly Cloudy BKN041 57 55.9 96% 29.87 1011.8
12 23:54 W 3 10.00 Fair CLR 60.1 57 90% 29.88 1012.0
12 22:54 Calm 10.00 Overcast OVC100 61 57.9 90% 29.88 1012.2
12 21:54 W 6 10.00 Overcast FEW060 BKN095 OVC120 63 57.9 84% 29.88 1012.1
12 20:54 Calm 10.00 Overcast OVC070 66 57 73% 29.89 1012.2
12 19:54 NE 5 10.00 A Few Clouds FEW085 FEW120 66.9 57 75 66.9 71% 29.88 1011.9
12 18:54 W 3 10.00 Mostly Cloudy FEW048 BKN055 70 59 68% 29.89 1012.2
12 17:54 SW 7 10.00 Fair CLR 72 55.9 57% 29.88 1012.0
12 16:54 SW 5 10.00 A Few Clouds FEW100 73.9 57.9 57% 29.88 1012.1
12 15:54 SW 7 10.00 A Few Clouds FEW095 72 57.9 61% 29.9 1012.6
12 14:54 S 5 10.00 Light Rain FEW037 FEW050 OVC095 71.1 57 61% 29.91 1013.1
12 13:54 SE 14 G 22 10.00 Partly Cloudy SCT110 72 57.9 75 64.9 61% 29.93 1013.6
12 12:54 Vrbl 5 10.00 A Few Clouds FEW055 FEW070 73 57.9 59% 29.94 1014.1
12 11:54 Calm 10.00 Mostly Cloudy BKN100 73 57.9 59% 29.96 1014.6
12 09:54 Calm 10.00 Partly Cloudy SCT027 SCT037 70 57.9 66% 29.98 1015.5
12 08:54 S 3 10.00 A Few Clouds FEW018 68 59 73% 29.99 1015.7
12 07:54 SE 5 10.00 Fair CLR 64.9 57.9 64.9 55.9 78% 29.99 1015.6
12 06:54 E 5 10.00 Fair CLR 63 57 81% 29.99 1015.6
12 05:54 N 5 10.00 Fair CLR 60.1 57 90% 29.98 1015.3
12 04:54 Calm 6.00 Fog/Mist CLR 55.9 55 97% 29.99 1015.7
12 03:54 Calm 10.00 Overcast OVC095 57.9 57 97% 29.97 1015.2
12 02:54 Calm 10.00 Overcast OVC095 61 57.9 90% 29.97 1015.0
12 01:54 SE 3 10.00 Overcast OVC095 61 57.9 68 60.1 90% 29.97 1014.9
12 00:54 Calm 10.00 Mostly Cloudy BKN090 63 57.9 84% 29.95 1014.5
11 23:54 Calm 10.00 Overcast OVC100 64 57.9 81% 29.96 1014.7
11 22:54 Calm 10.00 Overcast FEW055 OVC100 64 57.9 81% 29.96 1014.6
11 21:54 Calm 10.00 Mostly Cloudy BKN095 64 57 78% 29.94 1014.1
11 20:54 S 6 10.00 Overcast OVC095 68 57.9 70% 29.93 1013.7
11 19:54 Calm 10.00 Overcast OVC095 68 59 77 68 73% 29.9 1012.8
11 18:54 Calm 10.00 Overcast OVC095 72 57.9 61% 29.89 1012.4
11 17:54 Calm 10.00 Overcast OVC090 72 57 59% 29.88 1012.0
11 16:54 S 3 10.00 Overcast BKN060 OVC080 72 54 53% 29.88 1012.0
11 15:54 Vrbl 5 10.00 Fair CLR 75.9 54 47% 78 29.87 1011.7
11 14:54 Vrbl 5 10.00 Fair CLR 73.9 54 50% 29.86 1011.5
11 13:54 N 7 10.00 A Few Clouds FEW036 73.9 55.9 73.9 57 54% 29.86 1011.5
11 12:54 E 8 10.00 A Few Clouds FEW034 72 57 59% 29.86 1011.4
11 11:54 N 9 10.00 Partly Cloudy FEW027 SCT038 70 57 64% 29.86 1011.3
11 10:54 Calm 10.00 Mostly Cloudy BKN020 66.9 55.9 68% 29.85 1011.1
11 09:54 Calm 10.00 Overcast OVC018 63 55 76% 29.85 1011.2
11 08:54 NE 6 10.00 Mostly Cloudy BKN019 60.1 55 84% 29.83 1010.4
11 07:54 Calm 10.00 Overcast OVC015 57 53.1 57 48 87% 29.81 1009.9
11 06:54 Calm 10.00 Overcast OVC011 54 52 93% 29.79 1009.1
11 05:54 Calm 10.00 Overcast OVC012 53.1 51.1 93% 29.77 1008.5
11 04:54 Calm 10.00 Overcast FEW009 OVC016 51.1 48.9 92% 29.75 1007.7
11 03:54 Calm 10.00 Overcast BKN019 OVC024 48.9 48 97% 29.71 1006.4
11 02:54 Vrbl 3 10.00 Fair CLR 50 48 93% 29.69 1005.8
11 01:54 Calm 10.00 Fair CLR 50 48 59 50 93% 29.67 1005.0
11 00:54 W 3 10.00 Mostly Cloudy BKN033 52 50 93% 29.66 1004.8
10 23:54 Calm 10.00 Fair CLR 52 50 93% 29.64 1004.2
10 22:54 Calm 10.00 Fair CLR 52 51.1 97% 29.62 1003.6
10 21:54 Calm 10.00 Partly Cloudy SCT035 57 53.1 87% 29.6 1002.8
10 20:54 Calm 10.00 Overcast OVC033 57.9 54 87% 29.57 1001.8
10 19:54 Calm 10.00 A Few Clouds FEW030 59 53.1 62.1 57 81% 29.54 1000.8 0.02
10 18:54 NW 6 10.00 Mostly Cloudy BKN025 60.1 53.1 78% 29.52 1000.0
10 17:54 N 8 G 17 10.00 Overcast OVC020 60.1 53.1 78% 29.5 999.3
10 16:54 NW 9 G 18 10.00 Overcast BKN019 OVC024 60.1 53.1 78% 29.48 998.5 0.02
10 15:54 NW 9 G 21 10.00 Overcast FEW018 BKN027 OVC110 61 54 78% 29.45 997.7
Date Time (edt) Wind (mph) Vis. (mi.) Weather Sky Cond. Air Dwpt Max. Min. Relative Humidity Wind Chill (°F) Heat Index (°F) altimeter (in) sea level (mb) 1 hr 3 hr 6 hr
6 hour
Temperature (ºF) Pressure Precipitation (in)